SWR2PH LOWG-LSZH

Flight info

Callsign SWR2PH
Flight time 0h 50m
Altitude 30000
Route ABIRI4G/16C ABIRI DCT ERKIR L608 KPT L856 NEGRA
Aircraft A320/M-DE3FGHILRWY/LB1

Departure

Time 2026-04-25 20:10
Airport Graz Airport (LOWG)

Arrival

Time 2026-04-25 21:00
Airport Zürich Airport (LSZH)
Time Latitude Longitude Altitude Speed Heading
2026-04-25 19:52 46.99588 15.44323 1107 ft 0 kts 127°
2026-04-25 20:05 46.99585 15.44328 1107 ft 3 kts 130°
2026-04-25 20:05 46.99566 15.44304 1109 ft 7 kts 272°
2026-04-25 20:05 46.99602 15.44229 1110 ft 10 kts 334°
2026-04-25 20:06 46.99675 15.44207 1112 ft 11 kts 349°
2026-04-25 20:06 46.99755 15.44186 1115 ft 12 kts 350°
2026-04-25 20:06 46.99842 15.44163 1112 ft 13 kts 350°
2026-04-25 20:06 46.99937 15.44138 1117 ft 14 kts 349°
2026-04-25 20:07 47.00039 15.44110 1112 ft 15 kts 349°
2026-04-25 20:07 47.00147 15.44079 1112 ft 16 kts 349°
2026-04-25 20:07 47.00261 15.44047 1114 ft 17 kts 347°
2026-04-25 20:07 47.00349 15.43934 1121 ft 18 kts 304°
2026-04-25 20:08 47.00399 15.43824 1117 ft 7 kts 303°
2026-04-25 20:08 47.00422 15.43771 1120 ft 5 kts 298°
2026-04-25 20:08 47.00429 15.43738 1118 ft 2 kts 286°
2026-04-25 20:08 47.00433 15.43698 1126 ft 7 kts 271°
2026-04-25 20:09 47.00403 15.43612 1119 ft 13 kts 204°
2026-04-25 20:09 47.00354 15.43618 1118 ft 0 kts 170°
2026-04-25 20:09 47.00327 15.43625 1123 ft 17 kts 169°
2026-04-25 20:10 46.99941 15.43733 1108 ft 94 kts 169°
2026-04-25 20:10 46.99086 15.43970 1105 ft 153 kts 169°
2026-04-25 20:10 46.98009 15.44272 1648 ft 154 kts 169°
2026-04-25 20:10 46.96967 15.44569 2292 ft 153 kts 169°
2026-04-25 20:11 46.95927 15.44859 2920 ft 148 kts 176°
2026-04-25 20:11 46.94881 15.44562 3220 ft 164 kts 216°
2026-04-25 20:11 46.93927 15.43634 3789 ft 166 kts 214°
2026-04-25 20:11 46.92877 15.42680 4096 ft 189 kts 213°
2026-04-25 20:12 46.91707 15.41644 4558 ft 201 kts 213°
2026-04-25 20:12 46.90474 15.40563 5062 ft 216 kts 213°
2026-04-25 20:12 46.89140 15.39393 5621 ft 228 kts 213°
2026-04-25 20:12 46.88697 15.39006 5865 ft 229 kts 213°
2026-04-25 20:13 46.86794 15.36345 7050 ft 236 kts 242°
2026-04-25 20:13 46.86114 15.34047 7427 ft 258 kts 252°
2026-04-25 20:13 46.85555 15.31456 7966 ft 273 kts 264°
2026-04-25 20:13 46.85680 15.28700 8797 ft 274 kts 288°
2026-04-25 20:14 46.86291 15.26060 9743 ft 275 kts 290°
2026-04-25 20:14 46.86935 15.23406 10462 ft 285 kts 290°
2026-04-25 20:14 46.87629 15.20578 10819 ft 305 kts 290°
2026-04-25 20:14 46.88359 15.17611 11503 ft 313 kts 290°
2026-04-25 20:15 46.89096 15.14598 12287 ft 317 kts 290°
2026-04-25 20:15 46.89834 15.11544 13094 ft 321 kts 290°
2026-04-25 20:15 46.90578 15.08446 13874 ft 324 kts 290°
2026-04-25 20:15 46.91333 15.05306 14556 ft 328 kts 290°
2026-04-25 20:16 46.92082 15.02147 15279 ft 331 kts 289°
2026-04-25 20:16 46.92795 14.98980 15958 ft 334 kts 288°
2026-04-25 20:16 46.93507 14.95722 16645 ft 337 kts 287°
2026-04-25 20:16 46.94217 14.92434 17334 ft 340 kts 287°
2026-04-25 20:17 46.94931 14.89117 18024 ft 343 kts 287°
2026-04-25 20:17 46.95653 14.85772 18637 ft 347 kts 287°
2026-04-25 20:17 46.96390 14.82377 19226 ft 350 kts 287°
2026-04-25 20:17 46.97129 14.78971 19811 ft 353 kts 287°
2026-04-25 20:18 46.97878 14.75526 20380 ft 356 kts 287°
2026-04-25 20:18 46.98635 14.72052 20951 ft 360 kts 287°
2026-04-25 20:18 46.99393 14.68573 21519 ft 363 kts 287°
2026-04-25 20:18 47.00169 14.65009 22093 ft 366 kts 287°
2026-04-25 20:19 47.00945 14.61435 22631 ft 370 kts 287°
2026-04-25 20:19 47.01725 14.57832 23197 ft 373 kts 287°
2026-04-25 20:19 47.02512 14.54190 23736 ft 376 kts 287°
2026-04-25 20:19 47.03304 14.50519 24210 ft 379 kts 287°
2026-04-25 20:20 47.04101 14.46814 24671 ft 382 kts 287°
2026-04-25 20:20 47.04901 14.43084 25131 ft 385 kts 287°
2026-04-25 20:20 47.05707 14.39331 25569 ft 387 kts 287°
2026-04-25 20:20 47.06518 14.35548 26006 ft 390 kts 287°
2026-04-25 20:21 47.07332 14.31741 26425 ft 393 kts 287°
2026-04-25 20:21 47.08141 14.27956 26838 ft 395 kts 287°
2026-04-25 20:21 47.08960 14.24096 27259 ft 397 kts 287°
2026-04-25 20:21 47.09778 14.20214 27675 ft 400 kts 287°
2026-04-25 20:22 47.10599 14.16301 28075 ft 402 kts 287°
2026-04-25 20:22 47.10878 14.14976 28206 ft 403 kts 287°
2026-04-25 20:22 47.12264 14.08401 28782 ft 409 kts 288°
2026-04-25 20:22 47.13111 14.04397 29124 ft 412 kts 288°
2026-04-25 20:23 47.13961 14.00354 29493 ft 415 kts 288°
2026-04-25 20:23 47.14814 13.96296 29853 ft 418 kts 288°
2026-04-25 20:23 47.15671 13.92212 30050 ft 417 kts 288°
2026-04-25 20:23 47.16504 13.88211 30071 ft 400 kts 288°
2026-04-25 20:24 47.18133 13.80340 30085 ft 413 kts 288°
2026-04-25 20:24 47.19847 13.72076 30081 ft 432 kts 289°
2026-04-25 20:25 47.21615 13.63527 30088 ft 445 kts 289°
2026-04-25 20:25 47.23414 13.54795 30084 ft 447 kts 289°
2026-04-25 20:26 47.25213 13.46015 30086 ft 447 kts 289°
2026-04-25 20:26 47.27000 13.37247 30088 ft 447 kts 289°
2026-04-25 20:27 47.28785 13.28455 30086 ft 448 kts 289°
2026-04-25 20:27 47.30569 13.19639 30090 ft 449 kts 289°
2026-04-25 20:28 47.32331 13.10868 30099 ft 449 kts 289°
2026-04-25 20:28 47.34093 13.02033 30097 ft 449 kts 289°
2026-04-25 20:29 47.35858 12.93197 30090 ft 449 kts 289°
2026-04-25 20:29 47.37620 12.84354 30091 ft 450 kts 289°
2026-04-25 20:30 47.39372 12.75488 30108 ft 452 kts 289°
2026-04-25 20:30 47.41135 12.66509 30112 ft 455 kts 289°
2026-04-25 20:31 47.42883 12.57578 30112 ft 456 kts 289°
2026-04-25 20:31 47.44637 12.48584 30102 ft 455 kts 289°
2026-04-25 20:32 47.46378 12.39596 30109 ft 455 kts 289°
2026-04-25 20:32 47.48108 12.30597 30107 ft 455 kts 289°
2026-04-25 20:33 47.49835 12.21602 30104 ft 455 kts 289°
2026-04-25 20:33 47.50979 12.15627 30099 ft 454 kts 289°
2026-04-25 20:34 47.53262 12.03633 30107 ft 455 kts 289°
2026-04-25 20:34 47.54831 11.94554 30105 ft 457 kts 285°
2026-04-25 20:35 47.56085 11.85323 30100 ft 457 kts 284°
2026-04-25 20:35 47.57275 11.76066 30079 ft 456 kts 284°
2026-04-25 20:36 47.58513 11.66868 30099 ft 455 kts 284°
2026-04-25 20:36 47.59791 11.57698 30101 ft 454 kts 284°
2026-04-25 20:37 47.61062 11.48583 30101 ft 454 kts 284°
2026-04-25 20:37 47.62316 11.39396 30104 ft 455 kts 284°
2026-04-25 20:38 47.63474 11.30186 30098 ft 454 kts 283°
2026-04-25 20:38 47.64561 11.20962 30116 ft 454 kts 283°
2026-04-25 20:39 47.65643 11.11743 30126 ft 453 kts 283°
2026-04-25 20:39 47.66374 11.05578 30123 ft 453 kts 283°
2026-04-25 20:40 47.67837 10.93324 30126 ft 453 kts 283°
2026-04-25 20:40 47.68743 10.85677 30128 ft 452 kts 283°
2026-04-25 20:41 47.69989 10.74990 30130 ft 452 kts 282°
2026-04-25 20:41 47.71056 10.65806 29845 ft 448 kts 283°
2026-04-25 20:42 47.71404 10.62817 29583 ft 439 kts 283°
2026-04-25 20:42 47.72079 10.56965 29063 ft 422 kts 283°
2026-04-25 20:42 47.72402 10.54148 28797 ft 415 kts 283°
2026-04-25 20:42 47.72878 10.49976 28419 ft 405 kts 283°
2026-04-25 20:43 47.73341 10.45903 28046 ft 396 kts 283°
2026-04-25 20:43 47.73791 10.41912 27683 ft 388 kts 283°
2026-04-25 20:43 47.74231 10.38000 27315 ft 380 kts 283°
2026-04-25 20:43 47.74540 10.34127 26958 ft 377 kts 275°
2026-04-25 20:44 47.74481 10.30254 26604 ft 372 kts 272°
2026-04-25 20:44 47.74395 10.26439 26253 ft 367 kts 272°
2026-04-25 20:44 47.74307 10.22683 25907 ft 361 kts 272°
2026-04-25 20:44 47.74218 10.18980 25566 ft 357 kts 272°
2026-04-25 20:45 47.74131 10.15310 25226 ft 354 kts 272°
2026-04-25 20:45 47.74046 10.11668 24881 ft 352 kts 272°
2026-04-25 20:45 47.73963 10.08047 24551 ft 350 kts 272°
2026-04-25 20:45 47.73877 10.04444 24186 ft 348 kts 272°
2026-04-25 20:46 47.73788 10.00854 23824 ft 346 kts 272°
2026-04-25 20:46 47.73698 9.97286 23406 ft 345 kts 272°
2026-04-25 20:46 47.73610 9.93745 22967 ft 343 kts 272°
2026-04-25 20:46 47.73522 9.90213 22538 ft 341 kts 272°
2026-04-25 20:47 47.73437 9.86745 22117 ft 339 kts 272°
2026-04-25 20:47 47.73350 9.83253 21704 ft 337 kts 272°
2026-04-25 20:47 47.73262 9.79772 21288 ft 336 kts 272°
2026-04-25 20:47 47.73173 9.76326 20884 ft 334 kts 271°
2026-04-25 20:48 47.73080 9.72889 20486 ft 332 kts 271°
2026-04-25 20:48 47.72986 9.69467 20082 ft 330 kts 271°
2026-04-25 20:48 47.72891 9.66059 19692 ft 329 kts 271°
2026-04-25 20:48 47.72796 9.62673 19310 ft 327 kts 271°
2026-04-25 20:49 47.72701 9.59301 18931 ft 326 kts 271°
2026-04-25 20:49 47.72606 9.55947 18558 ft 325 kts 270°
2026-04-25 20:49 47.72512 9.52601 18147 ft 323 kts 270°
2026-04-25 20:49 47.72418 9.49265 17717 ft 322 kts 270°
2026-04-25 20:50 47.72295 9.45949 17285 ft 322 kts 265°
2026-04-25 20:50 47.71741 9.42720 16874 ft 325 kts 250°
2026-04-25 20:50 47.70628 9.39788 16439 ft 329 kts 235°
2026-04-25 20:50 47.69180 9.37157 16011 ft 329 kts 233°
2026-04-25 20:51 47.67726 9.34530 15579 ft 329 kts 233°
2026-04-25 20:51 47.66147 9.32122 15157 ft 331 kts 225°
2026-04-25 20:51 47.64433 9.29846 14745 ft 331 kts 224°
2026-04-25 20:51 47.62709 9.27584 14319 ft 331 kts 224°
2026-04-25 20:52 47.60984 9.25323 13875 ft 331 kts 224°
2026-04-25 20:52 47.59821 9.23797 13550 ft 330 kts 224°
2026-04-25 20:52 47.57551 9.20802 12923 ft 327 kts 224°
2026-04-25 20:52 47.55876 9.18590 12452 ft 317 kts 224°
2026-04-25 20:53 47.54260 9.16455 11991 ft 306 kts 224°
2026-04-25 20:53 47.52706 9.14401 11547 ft 295 kts 224°
2026-04-25 20:53 47.51201 9.12414 11100 ft 285 kts 224°
2026-04-25 20:53 47.49745 9.10488 10662 ft 276 kts 224°
2026-04-25 20:54 47.48337 9.08621 10234 ft 268 kts 224°
2026-04-25 20:54 47.46965 9.06804 9784 ft 261 kts 224°
2026-04-25 20:54 47.45654 9.05043 9316 ft 255 kts 227°
2026-04-25 20:54 47.44667 9.02826 8835 ft 257 kts 249°
2026-04-25 20:55 47.44064 9.00321 8387 ft 260 kts 253°
2026-04-25 20:55 47.43529 8.97799 7939 ft 261 kts 253°
2026-04-25 20:55 47.42997 8.95225 7487 ft 263 kts 253°
2026-04-25 20:55 47.42489 8.92626 7057 ft 263 kts 259°
2026-04-25 20:56 47.42472 8.89952 6656 ft 262 kts 281°
2026-04-25 20:56 47.42901 8.87345 6230 ft 261 kts 284°
2026-04-25 20:56 47.43349 8.84744 5818 ft 261 kts 284°
2026-04-25 20:56 47.43789 8.82187 5404 ft 251 kts 283°
2026-04-25 20:57 47.44073 8.79701 5025 ft 241 kts 278°
2026-04-25 20:57 47.44265 8.77281 4635 ft 233 kts 277°
2026-04-25 20:57 47.44425 8.74936 4270 ft 227 kts 277°
2026-04-25 20:57 47.44577 8.72639 3914 ft 222 kts 277°
2026-04-25 20:58 47.44726 8.70408 3567 ft 215 kts 277°
2026-04-25 20:58 47.44870 8.68274 3271 ft 202 kts 278°
2026-04-25 20:58 47.45004 8.66296 2921 ft 190 kts 278°
2026-04-25 20:58 47.45133 8.64448 2646 ft 171 kts 278°
2026-04-25 20:59 47.45252 8.62772 2360 ft 158 kts 278°
2026-04-25 20:59 47.45367 8.61212 2070 ft 147 kts 277°
2026-04-25 20:59 47.45473 8.59729 1843 ft 145 kts 277°
2026-04-25 20:59 47.45576 8.58254 1645 ft 143 kts 277°
2026-04-25 21:00 47.45675 8.56802 1444 ft 142 kts 278°
2026-04-25 21:00 47.45711 8.56328 1418 ft 133 kts 276°
2026-04-25 21:00 47.45741 8.54855 1397 ft 12 kts 156°
2026-04-25 21:01 47.45677 8.54899 1398 ft 9 kts 155°
2026-04-25 21:01 47.45627 8.54933 1393 ft 7 kts 155°
2026-04-25 21:01 47.45572 8.54972 1400 ft 12 kts 155°
2026-04-25 21:01 47.45485 8.55037 1400 ft 14 kts 144°
2026-04-25 21:02 47.45431 8.55143 1398 ft 12 kts 121°
2026-04-25 21:02 47.45396 8.55235 1405 ft 9 kts 118°
2026-04-25 21:02 47.45378 8.55305 1401 ft 6 kts 98°
2026-04-25 21:02 47.45385 8.55346 1400 ft 3 kts 62°
2026-04-25 21:03 47.45398 8.55364 1403 ft 3 kts 31°
2026-04-25 21:03 47.45414 8.55373 1402 ft 2 kts 22°
2026-04-25 21:03 47.45422 8.55378 1403 ft 0 kts 21°
2026-04-25 21:03 47.45444 8.55393 1408 ft 7 kts 27°
2026-04-25 21:04 47.45509 8.55446 1407 ft 14 kts 35°
2026-04-25 21:04 47.45521 8.55582 1407 ft 14 kts 96°
2026-04-25 21:04 47.45510 8.55727 1407 ft 15 kts 97°
2026-04-25 21:04 47.45488 8.55876 1413 ft 12 kts 149°
2026-04-25 21:05 47.45428 8.55874 1407 ft 0 kts 186°
2026-04-25 21:05 47.45424 8.55873 1407 ft 1 kts 185°
2026-04-25 21:05 47.45415 8.55872 1407 ft 1 kts 186°
2026-04-25 21:05 47.45414 8.55872 1407 ft 0 kts 186°